Theta_e
318 311 308 306 297 292 288 290 294 293 293 297 301 300 299 302 300 294 314 326 341 342 346 348 349 351 352 352 352 351 348 348 345 344 343 341 340 338 336 335 335 336 337 338 338 338 340 340 339
315 312 308 298 292 286 287 291 292 293 298 300 299 299 302 302 310 316 319 334 343 345 347 347 346 350 352 351 351 350 349 348 346 343 342 340 339 337 335 334 334 335 336 336 336 337 338 336 337
312 307 302 294 287 286 287 290 292 295 299 297 298 303 303 304 308 313 322 340 344 344 346 345 346 350 351 351 351 349 348 347 346 342 341 339 338 336 334 332 331 332 333 334 335 336 335 332 334
306 303 298 290 287 288 290 293 294 295 295 299 301 300 308 314 311 318 331 341 341 344 344 343 347 349 351 351 350 349 348 346 345 342 339 338 337 335 332 330 329 328 329 329 329 329 329 328 329
300 296 291 287 287 290 290 294 295 294 293 295 297 299 305 314 320 322 333 339 338 342 343 342 345 347 349 349 349 348 347 346 345 341 339 337 335 334 333 331 327 325 324 323 322 322 323 324 323
297 293 288 286 287 289 292 294 294 293 294 297 299 299 304 308 316 320 331 335 337 340 342 343 338 341 344 346 346 347 346 345 344 341 338 337 336 335 334 332 330 326 324 323 322 320 321 320 320
294 289 286 286 287 289 293 295 293 293 292 294 301 297 302 307 316 324 327 332 334 340 340 342 340 339 337 340 341 343 344 343 342 341 340 338 336 336 335 334 331 329 328 326 325 323 320 319 318
294 290 286 286 288 289 294 294 294 294 292 297 297 296 301 306 319 323 319 319 319 324 336 340 340 340 338 337 334 336 339 339 339 338 335 333 332 332 332 330 331 330 329 327 325 324 323 322 319
294 287 284 287 289 291 293 294 294 295 295 295 296 298 299 306 321 317 315 312 311 311 314 327 336 338 337 337 333 332 334 334 333 332 328 328 330 329 328 327 330 329 329 327 325 323 321 319 319
292 286 289 291 290 291 293 293 295 294 293 292 294 297 300 310 317 316 314 310 306 306 308 311 326 336 336 338 336 337 336 337 334 331 329 329 328 327 325 321 323 325 326 325 324 322 318 313 309
290 289 291 291 294 294 294 293 294 292 290 294 295 297 299 302 312 315 311 307 304 304 308 312 315 320 334 333 332 336 337 335 332 330 329 326 324 323 321 320 319 317 316 315 312 310 309 309 309
292 292 293 295 296 294 293 294 293 293 294 296 297 298 298 300 306 307 304 302 304 305 306 310 313 324 329 329 334 332 332 333 330 329 327 323 323 320 319 316 313 313 313 312 308 305 303 303 303
292 292 294 295 296 294 295 294 294 294 294 295 297 298 298 298 299 299 301 302 303 304 305 311 315 323 324 322 322 322 322 324 329 328 326 325 322 317 315 314 312 310 308 306 300 298 297 298 299
292 294 294 295 295 295 294 292 294 294 295 295 296 296 296 297 298 298 300 301 302 304 303 309 316 320 319 316 315 314 315 315 317 322 324 322 319 315 311 308 306 304 300 296 293 292 293 295 298
293 291 293 294 293 294 295 292 292 294 294 294 294 294 295 296 297 298 300 300 301 302 304 307 309 314 313 311 310 310 311 312 312 312 315 317 315 310 304 300 297 298 295 291 290 289 290 293 296
290 289 287 292 293 293 294 289 294 293 293 293 293 292 293 294 295 297 299 299 300 300 302 307 309 308 308 307 307 307 307 307 306 307 306 304 304 302 298 296 294 294 291 291 288 287 288 289 292
287 284 285 290 294 292 290 290 292 292 292 292 291 291 292 292 293 295 297 298 299 299 299 300 303 304 303 302 302 301 301 300 300 300 299 299 298 297 295 292 291 290 289 289 287 285 285 288 290
284 284 286 288 291 290 289 290 293 292 292 292 291 290 291 292 294 295 296 297 297 296 296 300 300 301 300 298 297 296 295 295 296 296 295 294 293 292 291 290 290 290 288 286 284 284 284 284 287
289 286 286 289 292 289 289 290 294 293 291 290 291 291 292 292 292 295 295 295 295 293 295 298 298 298 297 296 295 295 291 291 291 291 291 291 290 289 289 288 287 287 285 283 283 282 282 282 282
288 286 286 289 292 291 290 290 291 292 291 294 294 293 293 291 291 293 293 293 293 296 297 297 297 297 298 298 294 293 292 290 289 289 289 289 288 288 287 286 285 283 283 282 282 282 281 281 281
287 286 286 288 290 289 288 288 289 292 293 294 295 298 295 293 291 292 292 294 292 296 297 297 296 296 296 293 291 289 289 288 287 287 286 287 287 286 286 284 283 283 283 281 281 280 280 279 280
285 290 290 288 286 283 287 283 288 290 291 291 294 296 293 291 292 293 293 293 293 297 297 297 297 296 293 292 290 290 288 286 286 286 286 285 286 285 285 284 283 282 282 281 281 281 280 279 278
288 291 289 287 285 282 281 282 285 288 288 291 295 294 291 290 292 292 293 294 294 297 297 297 296 293 292 291 291 290 288 286 285 285 284 284 284 285 284 283 282 281 281 280 280 280 280 280 279
292 289 287 285 283 280 285 284 289 287 289 291 291 291 290 289 290 292 293 294 294 297 297 295 292 291 291 291 290 288 285 284 283 283 283 283 283 283 281 281 281 281 280 279 279 279 278 278 278
290 287 280 278 277 279 283 282 289 291 293 292 292 290 289 287 289 289 289 291 293 295 294 293 292 290 290 289 287 286 285 285 284 283 282 282 281 280 279 280 280 280 279 278 278 277 277 277 276
287 287 281 274 275 278 282 280 286 290 292 291 290 288 286 287 288 288 290 290 292 293 292 292 291 290 289 288 286 286 286 285 284 283 283 282 280 280 279 278 278 278 278 277 277 277 277 276 275
286 284 290 282 271 276 281 284 289 291 290 291 287 285 285 286 286 287 288 290 291 292 291 292 290 289 288 287 286 285 285 284 283 282 282 280 279 279 278 278 277 277 277 276 276 276 275 275 275
288 291 284 284 275 275 279 280 284 288 290 289 287 285 284 285 285 285 286 287 288 290 292 291 290 288 287 287 286 285 284 284 283 282 279 279 278 278 277 277 276 276 276 276 275 275 275 274 274
286 284 286 288 283 275 273 281 287 289 289 288 288 287 284 283 284 284 284 284 285 284 289 289 288 287 286 286 286 284 283 283 282 280 278 278 278 277 277 276 276 276 275 275 274 274 274 274 273
289 288 290 284 279 281 279 284 288 288 287 288 288 286 284 284 283 282 282 283 283 283 284 286 287 286 286 286 285 283 282 281 280 278 277 278 277 277 277 276 276 275 275 274 274 274 274 273 272
Wind_Speed
4 5 3 6 5 6 1 3 2 2 2 4 3 8 8 3 2 3 3 4 6 8 6 7 10 12 13 12 12 13 14 15 15 14 14 14 14 14 15 15 16 16 15 16 17 16 17 18 19
3 2 5 3 6 4 5 3 5 3 6 7 6 3 6 2 1 2 2 4 8 9 6 6 9 11 12 12 11 11 13 15 16 14 14 14 14 15 16 15 16 15 16 16 16 15 17 18 18
2 4 4 6 4 5 4 4 4 2 7 2 4 5 2 1 0 2 1 8 8 7 6 7 10 11 11 11 12 11 11 12 15 14 14 14 15 15 15 15 15 16 16 17 16 16 17 17 18
3 5 5 6 2 3 4 5 4 6 1 4 4 6 2 1 1 4 8 8 9 9 6 9 11 12 11 10 10 11 12 13 15 14 14 15 15 15 15 15 15 16 16 16 16 17 16 17 18
5 4 5 3 3 2 3 4 7 4 3 3 2 4 1 4 3 3 9 7 8 9 7 7 11 12 12 11 11 12 13 14 14 16 15 15 15 15 15 15 15 16 16 16 16 16 17 17 18
5 4 5 2 3 2 2 3 4 3 3 4 6 4 3 4 2 2 6 6 7 9 9 9 10 11 11 11 11 11 13 14 15 16 16 16 15 14 15 15 16 16 16 16 17 17 17 17 18
7 5 5 4 4 2 4 6 5 5 5 2 9 6 3 3 0 4 6 5 3 5 7 6 7 9 9 10 9 10 11 14 15 16 15 14 13 14 14 13 14 15 15 16 16 16 16 17 17
6 6 4 2 5 5 3 3 3 5 2 4 1 6 5 6 5 7 7 6 6 5 3 5 6 8 7 6 8 8 10 13 13 14 13 12 11 11 12 10 11 14 14 15 15 15 16 16 17
3 6 2 4 6 5 2 3 1 2 6 2 1 5 4 8 8 7 5 4 4 5 5 4 3 6 7 6 6 9 12 13 12 10 10 10 6 7 7 9 11 13 13 15 15 15 15 14 15
6 5 9 5 4 4 3 2 6 4 4 1 1 1 3 7 7 8 6 6 4 3 4 3 4 1 4 5 6 6 6 7 6 7 6 5 6 5 6 7 10 9 12 14 15 14 13 9 5
2 5 5 3 2 2 3 2 4 6 4 8 10 10 5 4 6 8 6 6 6 3 2 4 3 3 3 4 3 2 4 5 5 8 6 6 5 5 4 3 4 4 6 4 7 6 5 6 4
2 1 2 2 2 2 3 1 3 7 7 3 8 8 6 8 9 9 8 6 6 4 1 2 3 1 4 3 5 6 4 6 5 5 7 7 4 5 4 3 4 4 3 6 5 4 5 6 6
1 1 1 2 4 3 2 5 7 7 2 3 8 8 9 8 7 4 4 4 5 4 1 2 1 2 3 4 3 4 3 4 6 7 7 6 6 5 4 4 5 4 4 5 5 5 5 5 6
1 1 4 4 4 3 4 4 4 6 6 5 8 10 9 9 9 5 6 6 5 4 2 1 2 3 4 4 5 4 4 4 4 4 5 8 7 6 6 5 6 5 4 4 5 6 4 4 5
1 3 6 5 3 5 5 7 11 5 6 8 9 8 7 9 8 10 8 7 6 3 3 3 3 3 5 6 6 4 4 5 5 5 8 8 7 9 6 5 6 5 3 5 6 6 5 6 6
3 5 2 4 5 2 6 12 6 7 11 11 11 8 9 9 7 7 7 6 6 5 5 3 4 5 6 6 5 5 5 5 6 6 6 9 9 8 7 7 6 4 2 5 6 4 6 5 7
6 4 5 9 7 3 4 9 2 4 8 10 10 10 9 7 8 7 7 7 7 6 6 5 5 7 8 8 7 7 8 6 7 6 6 10 10 9 8 6 6 4 5 5 6 6 4 5 5
6 4 5 6 2 3 6 13 9 4 9 12 9 9 11 12 17 8 8 7 6 6 6 6 6 8 8 7 8 7 7 5 7 6 6 10 9 7 8 8 7 5 6 5 7 8 6 4 3
4 4 5 4 3 2 8 11 18 8 7 9 11 13 17 18 6 8 7 7 7 6 7 6 9 8 7 6 6 5 4 5 7 6 8 9 9 8 9 8 8 5 6 5 4 4 6 7 4
3 4 7 7 5 6 11 16 11 10 9 14 19 18 19 11 9 10 8 7 8 9 9 9 8 9 7 5 4 4 6 5 6 6 8 9 9 10 9 9 7 5 7 7 6 4 4 4 6
6 7 5 7 6 4 7 14 9 10 12 12 16 20 13 17 16 14 13 12 8 11 11 11 10 10 8 9 9 8 8 7 5 6 7 7 10 10 9 8 7 7 7 7 5 5 6 5 6
6 9 7 5 1 6 3 19 7 8 12 8 18 21 10 11 13 15 16 14 13 11 10 11 12 10 10 11 11 14 9 11 4 5 6 8 11 10 8 8 8 7 5 7 6 5 5 4 4
7 6 7 2 3 3 1 4 3 3 5 11 17 11 9 12 18 20 21 17 13 12 12 11 11 10 11 11 10 8 10 9 7 8 10 10 10 9 8 8 8 9 6 6 8 8 9 6 5
6 6 6 4 2 7 11 9 28 2 6 7 5 3 6 9 11 11 10 12 12 11 12 11 13 11 11 12 10 10 13 15 12 11 9 8 8 7 7 8 8 7 7 7 7 8 10 8 8
4 7 2 4 1 10 4 7 17 10 11 6 8 7 7 7 10 12 15 14 13 14 13 12 14 13 13 11 11 12 12 12 14 13 10 12 9 7 6 8 7 7 7 7 7 9 9 6 7
8 8 8 8 5 5 2 11 8 7 9 7 6 4 5 7 7 11 14 14 15 15 14 14 15 14 14 14 14 13 12 8 8 8 9 7 7 8 6 7 7 8 8 8 8 8 7 7 7
6 6 4 5 2 2 6 9 10 10 10 11 2 3 6 5 6 8 10 11 12 13 15 15 15 14 14 14 13 14 13 12 10 10 8 7 9 8 9 8 9 7 8 8 7 7 8 6 6
7 7 4 3 4 7 6 7 11 9 10 7 6 7 5 6 7 6 9 11 9 10 11 11 12 14 14 15 14 14 14 13 12 10 10 11 9 9 10 9 9 8 8 8 8 7 6 7 4
4 3 2 5 5 5 4 9 8 6 3 7 8 6 8 8 8 8 7 5 6 6 12 13 13 14 13 12 12 13 12 12 11 10 9 10 10 8 9 9 8 8 8 7 7 7 6 8 7
3 9 9 5 7 5 2 14 3 4 3 4 8 2 5 7 8 7 7 6 7 9 10 12 13 13 13 12 12 12 12 11 11 9 8 9 10 8 9 8 8 8 7 6 6 6 5 7 6
Wind_Direction
335 358 68 41 55 64 228 243 287 132 68 341 80 117 127 68 122 206 274 166 125 135 141 135 130 128 129 131 130 126 123 114 106 98 94 88 87 84 80 74 71 71 71 70 70 68 65 60 55
4 50 44 78 86 75 269 264 187 201 150 149 76 68 46 76 99 148 133 171 152 136 135 132 132 131 132 133 126 128 124 122 116 103 95 92 89 82 76 75 75 72 70 69 68 66 66 64 63
96 47 83 91 109 171 193 216 204 125 158 136 94 59 97 71 15 192 229 136 133 132 136 141 139 136 136 134 131 131 127 125 113 108 102 98 88 85 82 77 76 73 74 71 66 69 68 63 67
78 13 36 84 190 227 204 187 200 141 146 55 120 65 -0 263 268 169 152 145 145 146 141 153 151 146 143 139 137 137 135 132 120 109 104 98 94 88 82 80 78 77 73 72 69 68 66 66 64
36 58 61 81 282 270 244 183 166 148 131 103 108 169 41 339 347 126 153 160 150 155 148 163 164 156 150 144 141 140 140 138 127 120 114 107 100 94 90 84 81 78 76 74 71 69 68 66 65
46 89 63 173 260 290 291 187 175 138 141 144 83 112 203 316 279 119 157 166 154 160 161 172 175 159 154 148 145 143 144 139 130 126 123 117 110 102 94 88 84 81 77 74 70 68 66 65 64
110 85 184 181 200 189 221 153 179 157 141 194 152 123 257 298 189 118 127 118 132 172 157 164 163 153 151 148 148 147 145 140 137 133 129 124 117 107 95 87 86 84 79 73 68 65 65 63 63
103 91 130 181 187 227 184 143 126 144 150 114 119 176 200 219 135 101 81 85 77 55 69 144 144 147 143 151 150 151 148 142 141 139 134 125 117 111 107 92 90 87 82 76 72 67 65 65 65
112 66 175 197 151 250 185 140 215 85 113 67 338 158 253 132 126 102 97 76 68 50 33 50 156 154 154 152 166 159 151 145 140 127 120 122 123 112 94 98 85 84 83 83 78 72 67 62 60
86 112 210 200 194 219 192 175 179 151 126 20 17 4 87 124 148 141 149 140 113 94 35 29 56 130 163 153 155 148 144 145 137 130 117 104 99 88 88 73 76 75 80 80 75 65 61 55 50
153 171 200 220 203 208 186 239 194 136 236 203 192 184 170 150 165 162 164 165 159 131 56 22 18 30 118 137 139 124 143 136 128 136 123 108 106 101 89 76 56 37 57 70 67 47 35 48 47
123 249 194 195 212 160 196 156 224 187 224 309 196 164 159 168 180 182 176 169 157 150 117 349 353 70 86 90 159 151 142 136 138 139 129 129 113 100 92 80 76 64 15 77 60 62 40 46 50
153 263 265 190 208 250 133 231 222 237 202 50 139 150 170 173 182 178 159 150 152 166 201 345 280 138 106 92 92 95 89 107 142 144 137 135 120 110 100 87 67 53 38 72 60 58 40 43 45
172 242 283 269 224 227 191 253 150 251 144 136 156 181 185 183 178 148 179 184 189 161 175 294 96 81 89 88 81 87 89 85 80 93 131 121 117 110 104 85 76 58 26 30 77 67 57 49 51
63 330 326 245 229 225 167 281 235 189 159 176 198 199 197 208 190 198 185 184 180 182 148 150 100 77 94 94 85 78 80 80 83 79 88 102 108 112 104 91 74 71 26 58 69 56 51 57 55
42 47 348 282 143 250 140 268 254 168 159 207 209 210 211 215 209 209 191 178 175 157 158 120 112 102 92 96 84 76 78 83 76 81 79 81 83 90 107 99 78 75 47 74 72 59 70 60 64
1 243 218 311 203 120 167 266 262 149 191 221 213 213 220 219 225 209 189 181 176 167 154 139 124 111 105 91 84 77 74 69 75 78 73 90 84 93 94 108 96 84 75 66 80 63 70 75 69
208 220 242 244 209 166 215 266 264 197 201 232 227 221 223 219 218 185 183 175 161 159 154 138 123 117 110 104 96 84 82 83 77 82 90 104 97 109 108 98 85 76 87 68 72 88 60 70 77
149 198 235 247 246 204 234 238 259 224 216 234 235 221 224 223 188 169 173 161 153 156 157 152 138 139 135 128 119 104 94 95 80 81 97 94 106 100 98 86 83 69 83 76 73 94 77 41 1
184 213 248 298 232 189 269 259 242 239 221 220 228 228 223 201 172 174 170 169 172 166 168 161 153 150 147 139 109 114 116 92 93 91 87 90 95 92 90 95 86 77 87 62 47 52 100 70 14
217 211 238 230 316 241 306 267 226 247 228 240 240 237 222 202 181 177 180 184 172 179 172 166 159 158 144 124 114 104 105 100 107 103 88 85 88 81 86 87 88 75 74 71 51 49 70 110 42
221 201 198 239 94 256 12 292 199 227 238 224 244 240 219 181 182 178 180 185 184 180 169 166 160 154 142 140 141 148 146 142 130 115 115 101 88 89 88 89 89 85 83 81 75 55 70 96 102
221 136 176 194 193 327 187 275 104 192 252 254 252 244 206 185 179 183 188 180 176 169 168 164 156 147 147 146 151 144 137 112 122 118 118 110 103 97 97 93 97 92 89 83 89 81 75 64 88
141 85 58 59 68 271 192 170 285 182 215 254 322 267 216 188 184 181 170 158 169 162 162 160 155 150 149 150 150 144 147 143 141 138 136 129 117 107 87 92 94 93 94 90 86 81 77 79 77
114 101 320 335 7 245 329 210 254 310 293 244 283 283 229 184 166 159 161 163 166 166 165 161 161 155 150 140 133 140 145 148 146 148 143 143 133 123 116 114 109 103 101 95 92 87 80 71 88
189 161 160 204 207 274 300 242 252 239 274 268 256 314 157 172 173 176 170 163 167 168 167 167 163 158 156 148 143 142 144 150 148 140 140 133 126 123 115 103 100 99 98 96 91 90 90 86 83
192 197 170 83 83 7 232 291 295 266 279 269 294 164 190 181 168 167 162 164 165 171 173 171 164 159 158 153 147 152 153 158 153 142 139 136 128 129 124 121 119 113 108 101 96 97 101 96 97
160 163 97 73 194 236 274 264 236 283 278 329 271 243 210 152 151 162 164 162 166 170 170 164 166 163 162 157 160 159 158 154 148 143 143 142 133 129 128 125 121 115 110 108 111 109 108 109 100
138 169 165 129 158 188 293 258 215 233 272 298 299 233 182 173 167 161 164 167 157 143 164 161 160 158 160 161 159 157 153 149 145 140 139 135 126 126 127 129 124 123 124 117 108 102 111 106 104
248 190 174 145 208 226 148 268 174 212 273 291 306 245 160 169 165 155 149 154 164 162 160 162 161 159 162 160 154 151 143 142 141 138 138 137 136 132 135 133 128 126 125 123 127 123 124 118 113